{"data":{"norad_id":61548,"intl_designator":"2024-184S","name":"STARLINK-32424","alt_names":[],"object_type":"PAYLOAD","status":"ACTIVE","operator":null,"country":"US","launch_date":"2024-10-15","launch_site_code":"AFWTR","launch_vehicle":null,"mission":null,"orbit_class":"UNKNOWN","rcs_meters":null,"size_class":null,"mass_kg":null,"dimensions":null,"purposes":["comms"],"wikipedia_slug":null,"has_3d_model":false,"image_url":null,"decayed_at":null,"tle_current":{"epoch":"2026-05-25T04:00:03.998880Z","epoch_age_seconds":63931,"freshness":"FRESH","line1":"1 61548U 24184S   26145.16671295  .00032762  00000+0  10041-2 0  9995","line2":"2 61548  53.1604  18.8637 0001608  86.9859 280.9431 15.33518437  5808","mean_motion":15.33518437,"eccentricity":0.0001608,"inclination_deg":53.1604,"raan_deg":18.8637,"arg_perigee_deg":86.9859,"mean_anomaly_deg":280.9431,"bstar":0.0010041,"rev_number":580,"period_min":93.901707684523,"perigee_km":464.2242577138,"apogee_km":466.42511499213,"semimajor_km":6843.461686353,"source":"CELESTRAK","updated_at":"2026-05-25T13:38:19.400460Z"}}}